Location: Demmingen
(48.6757°N, 10.4375°E)
Time: 06:29:15
(UTC+00:00)

CZ-2C R/B - Pass Details

Date: 08 August 2024
Orbit: 782 x 869 km, 98.3° (Epoch: 08 September)

Event Time Altitude Azimuth Distance (km) Brightness Sun altitude
Exits shadow 01:27:48 35° 192° (SSW) 1,360 3.3 -19.7°
Maximum altitude 01:30:06 62° 258° (WSW) 958 2.7 -19.5°
Drops below altitude 10° 01:35:33 10° 340° (NNW) 2,469 5.6 -19.0°
Sets 01:37:56 0° 344° (NNW) 3,395 6.4 -18.8°
